This is the latest recevied weather packets stored in our database for station/object KQ4WWD. If no packets are shown the sender has not sent any weather packets the latest 10 day(s).
| Time | Temp. | Humidity | Pressure | Rain* | Wind** | Luminosity | Snow |
|---|---|---|---|---|---|---|---|
| 1777655482 | 31.11° C | 53% | 1011.2 hPa | 0 mm | - | 211 W/m² | - |
| 1777655179 | 31.67° C | 55% | 1011.4 hPa | 0 mm | - | 213 W/m² | - |
| 1777654875 | 31.11° C | 54% | 1011.5 hPa | 0 mm | - | 800 W/m² | - |
| 1777654573 | 31.11° C | 55% | 1011.4 hPa | 0 mm | - | 790 W/m² | - |
| 1777654270 | 31.67° C | 55% | 1011.5 hPa | 0 mm | - | 223 W/m² | - |
| 1777653968 | 31.11° C | 57% | 1011.7 hPa | 0 mm | - | 746 W/m² | - |
| 1777653664 | 31.11° C | 56% | 1011.7 hPa | 0 mm | - | 684 W/m² | - |
| 1777653361 | 31.11° C | 55% | 1011.6 hPa | 0 mm | - | 707 W/m² | - |
| 1777653058 | 30° C | 60% | 1011.7 hPa | 0 mm | - | 685 W/m² | - |
| 1777652754 | 30.56° C | 60% | 1011.8 hPa | 0 mm | - | 723 W/m² | - |
| 1777652451 | 30.56° C | 59% | 1011.6 hPa | 0 mm | - | 746 W/m² | - |
| 1777652149 | 30° C | 59% | 1011.9 hPa | 0 mm | - | 780 W/m² | - |
| 1777651845 | 30.56° C | 59% | 1012.1 hPa | 0 mm | - | 733 W/m² | - |
| 1777651542 | 30° C | 59% | 1012.1 hPa | 0 mm | - | 708 W/m² | - |
| 1777651239 | 30° C | 61% | 1012.2 hPa | 0 mm | - | 660 W/m² | - |
| 1777650935 | 30° C | 61% | 1012.1 hPa | 0 mm | - | 702 W/m² | - |
| 1777650633 | 30° C | 62% | 1012 hPa | 0 mm | - | 726 W/m² | - |
| 1777650330 | 29.44° C | 64% | 1012.2 hPa | 0 mm | - | 721 W/m² | - |
| 1777650027 | 29.44° C | 64% | 1012.4 hPa | 0 mm | - | 735 W/m² | - |
| 1777649725 | 28.89° C | 64% | 1012.4 hPa | 0 mm | - | 346 W/m² | - |
| 1777649420 | 29.44° C | 64% | 1012.4 hPa | 0 mm | - | 710 W/m² | - |
| 1777649118 | 29.44° C | 64% | 1012.5 hPa | 0 mm | - | 738 W/m² | - |
| 1777648815 | 29.44° C | 64% | 1012.4 hPa | 0 mm | - | 332 W/m² | - |
| 1777648512 | 28.89° C | 65% | 1012.3 hPa | 0 mm | - | 745 W/m² | - |
| 1777648209 | 28.89° C | 66% | 1012.3 hPa | 0 mm | - | 742 W/m² | - |
* Rain latest hour (hover to see other rain measurements)
** Current wind speed in m/s (hover to see current wind gust speed)